    30483,2009-05-21T20:56:11.315,-1829.58, 8460372, 134.78,  41.04, 2574650,       0, 2574351, 2574582, 2574680,     146,   -0.45,   0.693,    0.00,    0.00,    0.00
    30484,2009-05-21T20:56:15.315,-1825.58, 8438936, 134.84,  41.27, 2574673,       0, 2574462, 2574625, 2574700,      99,   -1.55,   0.454,    0.00,    0.00,    0.00
    30485,2009-05-21T20:56:19.172,-1821.72, 8418275, 134.93,  41.51, 2574697,       0, 2574477, 2574628, 2574724,     115,   -0.72,   0.395,    0.00,    0.00,    0.00
    30486,2009-05-21T20:56:23.029,-1817.87, 8397618, 135.01,  41.66, 2574673,       0, 2574489, 2574663, 2574700,     110,   -1.91,   0.505,    0.00,    0.00,    0.00
    30487,2009-05-21T20:56:26.886,-1814.01, 8376965, 135.11,  41.71, 2574683,       0, 2574525, 2574714, 2574710,     108,   -1.64,   0.563,    0.00,    0.00,    0.00
    30488,2009-05-21T20:56:30.743,-1810.15, 8356316, 135.20,  41.71, 2574683,       0, 2574513, 2574704, 2574710,     110,   -1.44,   0.574,    0.00,    0.00,    0.00
    30489,2009-05-21T20:56:34.600,-1806.30, 8335671, 135.29,  41.68, 2574693,       0, 2574507, 2574691, 2574720,      88,   -1.29,   0.551,    0.00,    0.00,    0.00
    30490,2009-05-21T20:56:38.457,-1802.44, 8315030, 135.39,  41.62, 2574671,       0, 2574505, 2574679, 2574697,      84,   -0.97,   0.509,    0.00,    0.00,    0.00
    30491,2009-05-21T20:56:42.315,-1798.58, 8294389, 135.49,  41.57, 2574655,       0, 2574518, 2574683, 2574682,      82,   -1.37,   0.476,    0.00,    0.00,    0.00
    30492,2009-05-21T20:56:46.172,-1794.72, 8273756, 135.57,  41.51, 2574648,       0, 2574485, 2574642, 2574675,      80,   -1.29,   0.441,    0.00,    0.00,    0.00
    30493,2009-05-21T20:56:50.029,-1790.87, 8253128, 135.66,  41.47, 2574645,       0, 2574477, 2574631, 2574672,      95,   -0.90,   0.430,    0.00,    0.00,    0.00
    30494,2009-05-21T20:56:53.886,-1787.01, 8232503, 135.75,  41.42, 2574632,       0, 2574521, 2574673, 2574658,      65,   -1.88,   0.419,    0.00,    0.00,    0.00
    30495,2009-05-21T20:56:57.743,-1783.15, 8211882, 135.84,  41.37, 2574637,       0, 2574483, 2574633, 2574664,      71,   -1.22,   0.415,    0.00,    0.00,    0.00
    30496,2009-05-21T20:57:01.600,-1779.30, 8191266, 135.94,  41.31, 2574631,       0, 2574519, 2574671, 2574658,      72,   -1.71,   0.425,    0.00,    0.00,    0.00
    30497,2009-05-21T20:57:05.457,-1775.44, 8170654, 136.03,  41.27, 2574637,       0, 2574498, 2574653, 2574663,      98,   -1.80,   0.442,    0.00,    0.00,    0.00
    30498,2009-05-21T20:57:09.315,-1771.58, 8150043, 136.10,  41.22, 2574637,       0, 2574494, 2574650, 2574663,      84,   -0.85,   0.450,    0.00,    0.00,    0.00
    30499,2009-05-21T20:57:13.172,-1767.72, 8129439, 136.14,  41.17, 2574608,       0, 2574449, 2574604, 2574634,      97,   -0.70,   0.445,    0.00,    0.00,    0.00
    30500,2009-05-21T20:57:17.029,-1763.87, 8108840, 136.19,  41.11, 2574619,       0, 2574469, 2574622, 2574645,      92,   -0.92,   0.435,    0.00,    0.00,    0.00
    30501,2009-05-21T20:57:20.886,-1760.01, 8088245, 136.21,  41.06, 2574620,       0, 2574507, 2574652, 2574646,      92,   -1.71,   0.402,    0.00,    0.00,    0.00
    30502,2009-05-21T20:57:24.743,-1756.15, 8067654, 136.20,  41.01, 2574625,       0, 2574475, 2574611, 2574652,      79,   -0.63,   0.351,    0.00,    0.00,    0.00
    30503,2009-05-21T20:57:28.600,-1752.30, 8047068, 136.20,  40.95, 2574619,       0, 2574507, 2574637, 2574647,      77,   -1.39,   0.306,    0.00,    0.00,    0.00
    30504,2009-05-21T20:57:32.457,-1748.44, 8026486, 136.19,  40.90, 2574626,       0, 2574532, 2574655, 2574655,      71,   -1.93,   0.259,    0.00,    0.00,    0.00
    30505,2009-05-21T20:57:36.315,-1744.58, 8005904, 136.20,  40.84, 2574625,       0, 2574498, 2574616, 2574654,      77,   -1.21,   0.220,    0.00,    0.00,    0.00
    30506,2009-05-21T20:57:40.172,-1740.72, 7985331, 136.20,  40.79, 2574611,       0, 2574509, 2574623, 2574641,      79,   -1.30,   0.168,    0.00,    0.00,    0.00
    30507,2009-05-21T20:57:44.029,-1736.87, 7964763, 136.20,  40.74, 2574630,       0, 2574471, 2574582, 2574661,      76,   -1.27,   0.131,    0.00,    0.00,    0.00
    30508,2009-05-21T20:57:47.886,-1733.01, 7944198, 136.20,  40.68, 2574631,       0, 2574506, 2574615, 2574664,      87,   -1.59,   0.090,    0.00,    0.00,    0.00
    30509,2009-05-21T20:57:51.743,-1729.15, 7923639, 136.21,  40.62, 2574630,       0, 2574472, 2574580, 2574664,      73,   -0.71,   0.060,    0.00,    0.00,    0.00
    30510,2009-05-21T20:57:55.600,-1725.30, 7903084, 136.21,  40.57, 2574611,       0, 2574482, 2574589, 2574645,      78,   -1.30,   0.056,    0.00,    0.00,    0.00
    30511,2009-05-21T20:57:59.457,-1721.44, 7882533, 136.21,  40.51, 2574619,       0, 2574492, 2574599, 2574652,      65,   -1.32,   0.087,    0.00,    0.00,    0.00
    30512,2009-05-21T20:58:03.315,-1717.58, 7861984, 136.22,  40.46, 2574620,       0, 2574471, 2574580, 2574652,      63,   -1.18,   0.120,    0.00,    0.00,    0.00
    30513,2009-05-21T20:58:07.172,-1713.72, 7841443, 136.23,  40.40, 2574600,       0, 2574494, 2574605, 2574631,      81,   -1.69,   0.165,    0.00,    0.00,    0.00
    30514,2009-05-21T20:58:11.029,-1709.87, 7820906, 136.23,  40.34, 2574600,       0, 2574491, 2574605, 2574628,      77,   -2.10,   0.214,    0.00,    0.00,    0.00
    30515,2009-05-21T20:58:14.886,-1706.01, 7800374, 136.23,  40.27, 2574603,       0, 2574500, 2574619, 2574631,      94,   -1.68,   0.266,    0.00,    0.00,    0.00
    30516,2009-05-21T20:58:18.743,-1702.15, 7779847, 136.26,  40.19, 2574605,       0, 2574478, 2574605, 2574631,      97,   -1.56,   0.331,    0.00,    0.00,    0.00
    30517,2009-05-21T20:58:22.600,-1698.30, 7759325, 136.27,  40.10, 2574588,       0, 2574450, 2574591, 2574614,     120,   -1.47,   0.410,    0.00,    0.00,    0.00
    30518,2009-05-21T20:58:26.457,-1694.44, 7738808, 136.28,  40.05, 2574599,       0, 2574450, 2574596, 2574624,      98,   -1.37,   0.442,    0.00,    0.00,    0.00
    30519,2009-05-21T20:58:30.315,-1690.58, 7718291, 136.29,  40.02, 2574595,       0, 2574432, 2574581, 2574621,     118,   -1.40,   0.454,    0.00,    0.00,    0.00
    30520,2009-05-21T20:58:34.172,-1686.72, 7697783, 136.32,  39.99, 2574623,       0, 2574450, 2574599, 2574648,     103,   -1.11,   0.458,    0.00,    0.00,    0.00
    30521,2009-05-21T20:58:38.029,-1682.87, 7677281, 136.33,  39.95, 2574633,       0, 2574433, 2574585, 2574658,     111,   -1.26,   0.476,    0.00,    0.00,    0.00
    30522,2009-05-21T20:58:41.886,-1679.01, 7656783, 136.36,  39.93, 2574641,       0, 2574422, 2574571, 2574666,     124,   -1.05,   0.463,    0.00,    0.00,    0.00
    30523,2009-05-21T20:58:45.743,-1675.15, 7636290, 136.38,  39.91, 2574661,       0, 2574436, 2574583, 2574685,     118,   -0.95,   0.454,    0.00,    0.00,    0.00
    30524,2009-05-21T20:58:49.600,-1671.30, 7615802, 136.41,  39.90, 2574620,       0, 2574415, 2574559, 2574644,     111,   -0.83,   0.442,    0.00,    0.00,    0.00
    30525,2009-05-21T20:58:53.457,-1667.44, 7595319, 136.45,  39.88, 2574664,       0, 2574428, 2574569, 2574688,     112,   -0.93,   0.432,    0.00,    0.00,    0.00
    30526,2009-05-21T20:58:57.315,-1663.58, 7574839, 136.48,  39.86, 2574652,       0, 2574419, 2574557, 2574677,     133,   -0.77,   0.421,    0.00,    0.00,    0.00
    30527,2009-05-21T20:59:01.172,-1659.72, 7554366, 136.52,  39.84, 2574662,       0, 2574419, 2574555, 2574687,     134,   -0.56,   0.410,    0.00,    0.00,    0.00
    30528,2009-05-21T20:59:05.029,-1655.87, 7533898, 136.55,  39.83, 2574678,       0, 2574458, 2574592, 2574703,     120,   -0.82,   0.398,    0.00,    0.00,    0.00
    30529,2009-05-21T20:59:08.886,-1652.01, 7513436, 136.59,  39.81, 2574698,       0, 2574438, 2574569, 2574723,     127,   -0.47,   0.384,    0.00,    0.00,    0.00
    30530,2009-05-21T20:59:12.743,-1648.15, 7492979, 136.63,  39.79, 2574695,       0, 2574480, 2574608, 2574719,     127,   -0.94,   0.371,    0.00,    0.00,    0.00
    30531,2009-05-21T20:59:16.600,-1644.30, 7472527, 136.68,  39.77, 2574696,       0, 2574415, 2574539, 2574721,     138,   -0.26,   0.350,    0.00,    0.00,    0.00
    30532,2009-05-21T20:59:20.457,-1640.44, 7452080, 136.72,  39.76, 2574717,       0, 2574442, 2574563, 2574742,     137,   -0.19,   0.337,    0.00,    0.00,    0.00
    30533,2009-05-21T20:59:24.315,-1636.58, 7431634, 136.77,  39.74, 2574739,       0, 2574440, 2574558, 2574764,     148,   -0.15,   0.320,    0.00,    0.00,    0.00
    30534,2009-05-21T20:59:28.172,-1632.72, 7411198, 136.81,  39.72, 2574756,       0, 2574424, 2574542, 2574781,     142,   -0.01,   0.312,    0.00,    0.00,    0.00
    30535,2009-05-21T20:59:32.029,-1628.87, 7390767, 136.86,  39.71, 2574727,       0, 2574482, 2574596, 2574752,     129,   -0.89,   0.294,    0.00,    0.00,    0.00
    30536,2009-05-21T20:59:35.886,-1625.01, 7370342, 136.91,  39.70, 2574813,       0, 2574470, 2574583, 2574838,     139,   -0.70,   0.286,    0.00,    0.00,    0.00
    30537,2009-05-21T20:59:39.743,-1621.15, 7349922, 136.96,  39.68, 2574765,       0, 2574459, 2574570, 2574790,     162,   -0.56,   0.272,    0.00,    0.00,    0.00
    30538,2009-05-21T20:59:43.600,-1617.30, 7329508, 137.02,  39.67, 2574766,       0, 2574498, 2574607, 2574792,     171,   -0.54,   0.262,    0.00,    0.00,    0.00
    30539,2009-05-21T20:59:47.457,-1613.44, 7309099, 137.07,  39.65, 2574810,       0, 2574497, 2574605, 2574836,     158,   -0.43,   0.256,    0.00,    0.00,    0.00
    30540,2009-05-21T20:59:51.315,-1609.58, 7288691, 137.12,  39.64, 2574789,       0, 2574576, 2574683, 2574814,     149,   -1.21,   0.252,    0.00,    0.00,    0.00
    30541,2009-05-21T20:59:55.172,-1605.72, 7268294, 137.19,  39.63, 2574807,       0, 2574533, 2574640, 2574832,     171,   -0.55,   0.248,    0.00,    0.00,    0.00
    30542,2009-05-21T20:59:59.029,-1601.87, 7247902, 137.24,  39.61, 2574786,       0, 2574603, 2574710, 2574811,     132,   -1.07,   0.260,    0.00,    0.00,    0.00
    30543,2009-05-21T21:00:02.886,-1598.01, 7227515, 137.31,  39.60, 2574800,       0, 2574642, 2574749, 2574825,     133,   -1.48,   0.268,    0.00,    0.00,    0.00
    30544,2009-05-21T21:00:06.743,-1594.15, 7207134, 137.37,  39.58, 2574805,       0, 2574604, 2574712, 2574830,     140,   -1.11,   0.279,    0.00,    0.00,    0.00
    30545,2009-05-21T21:00:10.600,-1590.30, 7186760, 137.43,  39.57, 2574838,       0, 2574578, 2574689, 2574862,     134,   -0.36,   0.303,    0.00,    0.00,    0.00
    30546,2009-05-21T21:00:14.457,-1586.44, 7166390, 137.49,  39.56, 2574832,       0, 2574608, 2574723, 2574855,     127,   -1.09,   0.330,    0.00,    0.00,    0.00
    30547,2009-05-21T21:00:18.315,-1582.58, 7146023, 137.55,  39.54, 2574799,       0, 2574533, 2574652, 2574822,     163,   -0.50,   0.355,    0.00,    0.00,    0.00
    30548,2009-05-21T21:00:22.172,-1578.72, 7125665, 137.63,  39.53, 2574826,       0, 2574536, 2574659, 2574850,     166,   -0.55,   0.385,    0.00,    0.00,    0.00
    30549,2009-05-21T21:00:26.029,-1574.87, 7105314, 137.70,  39.52, 2574808,       0, 2574623, 2574753, 2574832,     128,   -1.39,   0.425,    0.00,    0.00,    0.00
    30550,2009-05-21T21:00:29.886,-1571.01, 7084968, 137.76,  39.51, 2574811,       0, 2574641, 2574777, 2574834,     145,   -1.17,   0.454,    0.00,    0.00,    0.00
    30551,2009-05-21T21:00:33.743,-1567.15, 7064629, 137.81,  39.47, 2574805,       0, 2574591, 2574728, 2574828,     113,   -1.21,   0.461,    0.00,    0.00,    0.00
    30552,2009-05-21T21:00:37.600,-1563.30, 7044295, 137.86,  39.44, 2574812,       0, 2574628, 2574767, 2574835,     122,   -1.58,   0.473,    0.00,    0.00,    0.00
    30553,2009-05-21T21:00:41.457,-1559.44, 7023967, 137.91,  39.41, 2574810,       0, 2574625, 2574766, 2574834,     137,   -0.92,   0.482,    0.00,    0.00,    0.00
    30554,2009-05-21T21:00:45.315,-1555.58, 7003642, 137.94,  39.35, 2574789,       0, 2574620, 2574756, 2574812,     133,   -1.27,   0.463,    0.00,    0.00,    0.00
    30555,2009-05-21T21:00:49.172,-1551.72, 6983327, 137.96,  39.30, 2574806,       0, 2574598, 2574731, 2574830,     135,   -1.04,   0.445,    0.00,    0.00,    0.00
    30556,2009-05-21T21:00:53.029,-1547.87, 6963017, 138.00,  39.24, 2574823,       0, 2574640, 2574766, 2574846,     111,   -0.72,   0.420,    0.00,    0.00,    0.00
    30557,2009-05-21T21:00:56.886,-1544.01, 6942715, 138.03,  39.19, 2574816,       0, 2574611, 2574734, 2574839,     101,   -0.47,   0.402,    0.00,    0.00,    0.00
    30558,2009-05-21T21:01:00.743,-1540.15, 6922418, 138.06,  39.14, 2574808,       0, 2574635, 2574755, 2574831,     118,   -0.96,   0.391,    0.00,    0.00,    0.00
    30559,2009-05-21T21:01:04.600,-1536.30, 6902128, 138.09,  39.09, 2574821,       0, 2574655, 2574773, 2574844,     113,   -1.18,   0.377,    0.00,    0.00,    0.00
    30560,2009-05-21T21:01:08.457,-1532.44, 6881844, 138.12,  39.04, 2574826,       0, 2574603, 2574718, 2574849,     113,   -0.50,   0.365,    0.00,    0.00,    0.00
    30561,2009-05-21T21:01:12.315,-1528.58, 6861563, 138.15,  38.99, 2574819,       0, 2574567, 2574681, 2574842,     111,   -0.94,   0.361,    0.00,    0.00,    0.00
    30562,2009-05-21T21:01:16.172,-1524.72, 6841292, 138.19,  38.94, 2574814,       0, 2574626, 2574738, 2574837,     111,   -1.29,   0.355,    0.00,    0.00,    0.00
    30563,2009-05-21T21:01:20.029,-1520.87, 6821027, 138.23,  38.89, 2574823,       0, 2574573, 2574684, 2574846,     126,   -0.74,   0.347,    0.00,    0.00,    0.00
    30564,2009-05-21T21:01:23.886,-1517.01, 6800769, 138.27,  38.86, 2574779,       0, 2574584, 2574695, 2574802,     112,   -0.62,   0.352,    0.00,    0.00,    0.00
    30565,2009-05-21T21:01:27.743,-1513.15, 6780518, 138.31,  38.81, 2574830,       0, 2574610, 2574721, 2574853,     102,   -1.08,   0.349,    0.00,    0.00,    0.00
    30566,2009-05-21T21:01:31.600,-1509.30, 6760273, 138.35,  38.77, 2574822,       0, 2574614, 2574724, 2574844,     119,   -0.82,   0.349,    0.00,    0.00,    0.00
    30567,2009-05-21T21:01:35.457,-1505.44, 6740035, 138.39,  38.72, 2574805,       0, 2574581, 2574690, 2574827,     113,   -1.29,   0.344,    0.00,    0.00,    0.00
    30568,2009-05-21T21:01:39.315,-1501.58, 6719800, 138.44,  38.69, 2574806,       0, 2574621, 2574731, 2574828,     104,   -0.89,   0.353,    0.00,    0.00,    0.00
    30569,2009-05-21T21:01:43.172,-1497.72, 6699575, 138.49,  38.65, 2574795,       0, 2574578, 2574688, 2574817,      92,   -1.15,   0.358,    0.00,    0.00,    0.00
    30570,2009-05-21T21:01:47.029,-1493.87, 6679358, 138.54,  38.60, 2574776,       0, 2574553, 2574662, 2574798,     107,   -0.26,   0.354,    0.00,    0.00,    0.00
    30571,2009-05-21T21:01:50.886,-1490.01, 6659147, 138.59,  38.57, 2574771,       0, 2574599, 2574710, 2574793,     104,   -1.53,   0.364,    0.00,    0.00,    0.00
    30572,2009-05-21T21:01:54.743,-1486.15, 6638943, 138.64,  38.54, 2574722,       0, 2574592, 2574705, 2574744,      83,   -1.70,   0.378,    0.00,    0.00,    0.00
    30573,2009-05-21T21:01:58.600,-1482.30, 6618746, 138.70,  38.50, 2574738,       0, 2574612, 2574725, 2574760,      92,   -1.81,   0.384,    0.00,    0.00,    0.00
    30574,2009-05-21T21:02:02.457,-1478.44, 6598556, 138.74,  38.46, 2574717,       0, 2574570, 2574685, 2574739,      97,   -1.40,   0.395,    0.00,    0.00,    0.00
    30575,2009-05-21T21:02:06.315,-1474.58, 6578369, 138.80,  38.43, 2574707,       0, 2574611, 2574729, 2574729,      79,   -2.49,   0.411,    0.00,    0.00,    0.00
    30576,2009-05-21T21:02:10.172,-1470.72, 6558193, 138.86,  38.40, 2574700,       0, 2574575, 2574695, 2574722,      94,   -2.17,   0.424,    0.00,    0.00,    0.00
    30577,2009-05-21T21:02:14.029,-1466.87, 6538025, 138.92,  38.36, 2574700,       0, 2574551, 2574673, 2574722,      94,   -1.97,   0.442,    0.00,    0.00,    0.00
    30578,2009-05-21T21:02:17.886,-1463.01, 6517863, 138.98,  38.33, 2574692,       0, 2574543, 2574668, 2574715,     108,   -1.25,   0.456,    0.00,    0.00,    0.00
    30579,2009-05-21T21:02:21.743,-1459.15, 6497709, 139.05,  38.30, 2574684,       0, 2574577, 2574707, 2574708,      93,   -1.89,   0.478,    0.00,    0.00,    0.00
    30580,2009-05-21T21:02:25.600,-1455.30, 6477562, 139.11,  38.27, 2574713,       0, 2574556, 2574693, 2574737,      87,   -1.71,   0.509,    0.00,    0.00,    0.00
    30581,2009-05-21T21:02:29.457,-1451.44, 6457423, 139.17,  38.24, 2574705,       0, 2574553, 2574694, 2574729,      87,   -0.97,   0.529,    0.00,    0.00,    0.00
    30582,2009-05-21T21:02:33.315,-1447.58, 6437287, 139.25,  38.21, 2574780,       0, 2574505, 2574651, 2574806,      97,   -0.56,   0.552,    0.00,    0.00,    0.00
    30583,2009-05-21T21:02:37.172,-1443.72, 6417163, 139.33,  38.16, 2574772,       0, 2574529, 2574675, 2574797,     108,   -1.29,   0.551,    0.00,    0.00,    0.00
    30584,2009-05-21T21:02:41.029,-1439.87, 6397046, 139.38,  38.09, 2574800,       0, 2574513, 2574654, 2574825,      95,    0.23,   0.532,    0.00,    0.00,    0.00
    30585,2009-05-21T21:02:44.886,-1436.01, 6376936, 139.43,  38.03, 2574829,       0, 2574515, 2574650, 2574853,      99,   -0.34,   0.507,    0.00,    0.00,    0.00
    30586,2009-05-21T21:02:48.743,-1432.15, 6356835, 139.48,  37.97, 2574843,       0, 2574523, 2574654, 2574867,      98,   -0.08,   0.496,    0.00,    0.00,    0.00
    30587,2009-05-21T21:02:52.600,-1428.30, 6336741, 139.53,  37.91, 2574828,       0, 2574491, 2574619, 2574851,      90,    0.08,   0.481,    0.00,    0.00,    0.00
    30588,2009-05-21T21:02:56.457,-1424.44, 6316654, 139.59,  37.85, 2574820,       0, 2574506, 2574630, 2574843,     105,    0.15,   0.470,    0.00,    0.00,    0.00
    30589,2009-05-21T21:03:00.315,-1420.58, 6296573, 139.64,  37.80, 2574795,       0, 2574515, 2574638, 2574818,     106,    0.10,   0.464,    0.00,    0.00,    0.00
    30590,2009-05-21T21:03:04.172,-1416.72, 6276502, 139.69,  37.74, 2574796,       0, 2574505, 2574625, 2574818,     134,    0.05,   0.454,    0.00,    0.00,    0.00
    30591,2009-05-21T21:03:08.029,-1412.87, 6256440, 139.76,  37.69, 2574789,       0, 2574534, 2574654, 2574812,     146,   -0.01,   0.454,    0.00,    0.00,    0.00
    30592,2009-05-21T21:03:11.886,-1409.01, 6236385, 139.79,  37.63, 2574791,       0, 2574579, 2574694, 2574813,     123,   -0.87,   0.436,    0.00,    0.00,    0.00
    30593,2009-05-21T21:03:15.743,-1405.15, 6216339, 139.82,  37.57, 2574786,       0, 2574576, 2574687, 2574808,     116,   -1.11,   0.414,    0.00,    0.00,    0.00
    30594,2009-05-21T21:03:19.600,-1401.30, 6196300, 139.86,  37.52, 2574774,       0, 2574578, 2574686, 2574795,     109,   -0.70,   0.400,    0.00,    0.00,    0.00
    30595,2009-05-21T21:03:23.457,-1397.44, 6176270, 139.89,  37.46, 2574778,       0, 2574625, 2574730, 2574799,      72,   -2.08,   0.386,    0.00,    0.00,    0.00
    30596,2009-05-21T21:03:27.315,-1393.58, 6156244, 139.92,  37.41, 2574793,       0, 2574598, 2574700, 2574814,      92,   -1.47,   0.368,    0.00,    0.00,    0.00
    30597,2009-05-21T21:03:31.172,-1389.72, 6136230, 139.96,  37.36, 2574797,       0, 2574581, 2574682, 2574818,     105,   -0.76,   0.366,    0.00,    0.00,    0.00
    30598,2009-05-21T21:03:35.029,-1385.87, 6116225, 140.00,  37.30, 2574789,       0, 2574568, 2574667, 2574809,      93,   -1.09,   0.357,    0.00,    0.00,    0.00
    30599,2009-05-21T21:03:38.886,-1382.01, 6096228, 140.05,  37.25, 2574788,       0, 2574572, 2574670, 2574808,      98,   -0.75,   0.350,    0.00,    0.00,    0.00
    30600,2009-05-21T21:03:42.743,-1378.15, 6076240, 140.09,  37.20, 2574802,       0, 2574578, 2574675, 2574823,      90,   -0.44,   0.351,    0.00,    0.00,    0.00
    30601,2009-05-21T21:03:46.600,-1374.30, 6056260, 140.14,  37.16, 2574796,       0, 2574567, 2574665, 2574817,      96,   -0.30,   0.355,    0.00,    0.00,    0.00
    30602,2009-05-21T21:03:50.457,-1370.44, 6036288, 140.18,  37.11, 2574792,       0, 2574562, 2574661, 2574812,      91,   -1.12,   0.365,    0.00,    0.00,    0.00
    30603,2009-05-21T21:03:54.315,-1366.58, 6016322, 140.24,  37.06, 2574769,       0, 2574581, 2574679, 2574789,     110,   -0.67,   0.363,    0.00,    0.00,    0.00
    30604,2009-05-21T21:03:58.172,-1362.72, 5996368, 140.29,  37.01, 2574759,       0, 2574576, 2574676, 2574779,     127,   -1.32,   0.374,    0.00,    0.00,    0.00
    30605,2009-05-21T21:04:02.029,-1358.87, 5976423, 140.35,  36.97, 2574758,       0, 2574548, 2574650, 2574778,     108,   -0.69,   0.391,    0.00,    0.00,    0.00
    30606,2009-05-21T21:04:05.886,-1355.01, 5956486, 140.41,  36.93, 2574772,       0, 2574601, 2574704, 2574793,      96,   -1.52,   0.398,    0.00,    0.00,    0.00
    30607,2009-05-21T21:04:09.743,-1351.15, 5936559, 140.46,  36.88, 2574788,       0, 2574590, 2574695, 2574809,     115,   -1.13,   0.415,    0.00,    0.00,    0.00
    30608,2009-05-21T21:04:13.600,-1347.30, 5916641, 140.53,  36.83, 2574820,       0, 2574566, 2574672, 2574841,     111,   -0.68,   0.419,    0.00,    0.00,    0.00
    30609,2009-05-21T21:04:17.457,-1343.44, 5896731, 140.58,  36.77, 2574934,       0, 2574618, 2574722, 2574955,     124,   -0.77,   0.406,    0.00,    0.00,    0.00
    30610,2009-05-21T21:04:21.315,-1339.58, 5876831, 140.65,  36.70, 2574948,       0, 2574614, 2574714, 2574969,      97,   -0.96,   0.391,    0.00,    0.00,    0.00
    30611,2009-05-21T21:04:25.311,-1335.58, 5856220, 140.72,  36.63, 2574962,       0, 2574660, 2574759, 2574982,     101,   -1.17,   0.389,    0.00,    0.00,    0.00
    30612,2009-05-21T21:04:29.168,-1331.73, 5836338, 140.78,  36.57, 2574920,       0, 2574634, 2574733, 2574940,      99,   -0.88,   0.388,    0.00,    0.00,    0.00
    30613,2009-05-21T21:04:33.025,-1327.87, 5816466, 140.85,  36.51, 2574983,       0, 2574671, 2574771, 2575003,     103,   -0.32,   0.396,    0.00,    0.00,    0.00
    30614,2009-05-21T21:04:36.882,-1324.01, 5796604, 140.92,  36.45, 2574944,       0, 2574651, 2574750, 2574965,     109,   -1.31,   0.391,    0.00,    0.00,    0.00
    30615,2009-05-21T21:04:40.739,-1320.16, 5776751, 140.99,  36.39, 2574960,       0, 2574672, 2574774, 2574981,      78,   -1.70,   0.413,    0.00,    0.00,    0.00
    30616,2009-05-21T21:04:44.596,-1316.30, 5756907, 141.07,  36.33, 2574875,       0, 2574652, 2574756, 2574896,      96,   -0.93,   0.426,    0.00,    0.00,    0.00
    30617,2009-05-21T21:04:48.453,-1312.44, 5737073, 141.12,  36.28, 2574865,       0, 2574650, 2574756, 2574886,      92,   -1.42,   0.432,    0.00,    0.00,    0.00
    30618,2009-05-21T21:04:52.311,-1308.58, 5717246, 141.17,  36.23, 2574840,       0, 2574654, 2574760, 2574861,      87,   -1.44,   0.435,    0.00,    0.00,    0.00
    30619,2009-05-21T21:04:56.168,-1304.73, 5697432, 141.22,  36.18, 2574834,       0, 2574628, 2574734, 2574856,      88,   -1.00,   0.437,    0.00,    0.00,    0.00
    30620,2009-05-21T21:05:00.025,-1300.87, 5677627, 141.27,  36.11, 2574831,       0, 2574656, 2574759, 2574852,      92,   -1.32,   0.424,    0.00,    0.00,    0.00
    30621,2009-05-21T21:05:03.882,-1297.01, 5657833, 141.32,  36.04, 2574867,       0, 2574666, 2574765, 2574887,      76,   -1.68,   0.403,    0.00,    0.00,    0.00
    30622,2009-05-21T21:05:07.739,-1293.16, 5638048, 141.36,  35.97, 2574832,       0, 2574693, 2574789, 2574852,      83,   -1.68,   0.388,    0.00,    0.00,    0.00
    30623,2009-05-21T21:05:11.596,-1289.30, 5618274, 141.41,  35.91, 2574843,       0, 2574688, 2574782, 2574863,      85,   -1.42,   0.378,    0.00,    0.00,    0.00
    30624,2009-05-21T21:05:15.453,-1285.44, 5598509, 141.47,  35.84, 2574858,       0, 2574681, 2574773, 2574877,      87,   -1.26,   0.375,    0.00,    0.00,    0.00